SES-9

Last updated on Mon Oct 14 2024 00:02:40 GMT+0000 (Coordinated Universal Time)

1 41380U 16013A 24286.97063545 -.00000346 00000+0 00000+0 0 9990 2 41380 0.0256 282.1492 0001455 217.5395 340.0848 1.00269201 31301
UTC large
Height (km)
Speed (km/s)
/
Latitude / Longitude
Inclination (degrees)
Orbital Period (minutes)
Azimuth
Elevation
Range (km)
Doppler Factor

Next 0 passes for location: London (51.5072 / 0.1276)

Sorry there are no passes over London.